| time (UTC) | temp F | wind direction | speed MPH | gust MPH | rain 1hr in | rain 24hr in | rain mn in | humidity % | barometer mb |
| 20260902090015 | 69 | 0.0 | 0.0 | 0.00 | 0.51 | 0.00 | 97 | 1019.3 | |
| 20260902083015 | 69 | 0.0 | 0.0 | 0.00 | 0.52 | 0.00 | 97 | 1019.2 | |
| 20260902080015 | 69 | 0.0 | 0.0 | 0.00 | 0.53 | 0.00 | 97 | 1018.9 | |
| 20260902073015 | 69 | 0.0 | 0.0 | 0.00 | 0.53 | 0.00 | 97 | 1018.8 | |
| 20260902070058 | 69 | 0.0 | 0.0 | 0.00 | 0.53 | 0.00 | 97 | 1019.0 | |
| 20260902063017 | 69 | 0.0 | 0.0 | 0.00 | 0.53 | 0.00 | 97 | 1019.3 | |
| 20260902060017 | 68 | 0.0 | 0.0 | 0.00 | 0.53 | 0.00 | 97 | 1019.1 | |
| 20260902053039 | 68 | 0.0 | 0.0 | 0.00 | 0.53 | 0.00 | 97 | 1019.1 | |
| 20260902050017 | 68 | 0.0 | 0.0 | 0.00 | 0.53 | 0.00 | 96 | 1018.9 | |
| 20260902043017 | 67 | 0.0 | 0.0 | 0.00 | 0.53 | 0.00 | 96 | 1018.3 | |
| 20260902040017 | 68 | 0.0 | 0.0 | 0.00 | 0.53 | 0.53 | 96 | 1018.0 | |
| 20260902033017 | 68 | 0.0 | 0.0 | 0.00 | 0.53 | 0.53 | 96 | 1017.9 | |
| 20260902030037 | 68 | 0.0 | 0.0 | 0.00 | 0.54 | 0.53 | 96 | 1018.1 | |
| 20260902023017 | 68 | 0.0 | 0.0 | 0.00 | 0.55 | 0.53 | 96 | 1018.0 | |
| 20260902020019 | 68 | 0.0 | 0.0 | 0.00 | 0.55 | 0.53 | 95 | 1018.0 | |
| 20260902013017 | 69 | 0.0 | 0.0 | 0.00 | 0.56 | 0.53 | 95 | 1017.7 | |
| 20260902010016 | 69 | 0.0 | 0.0 | 0.00 | 0.58 | 0.53 | 95 | 1017.5 | |
| 20260902003017 | 69 | 0.0 | 0.0 | 0.00 | 0.59 | 0.53 | 94 | 1017.2 | |
| 20260902000017 | 70 | 0.0 | 0.0 | 0.00 | 0.60 | 0.53 | 93 | 1016.7 | |
| 20260901233017 | 71 | 0.0 | 0.0 | 0.00 | 0.60 | 0.53 | 93 | 1016.8 | |
| 20260901230016 | 72 | 0.0 | 0.0 | 0.25 | 0.61 | 0.53 | 92 | 1016.9 | |
| 20260901223016 | 74 | 0.0 | 3.0 | 0.25 | 0.61 | 0.53 | 89 | 1016.7 | |
| 20260901220016 | 77 | 0.0 | 0.0 | 0.00 | 0.36 | 0.28 | 87 | 1016.8 | |
| 20260901213016 | 76 | 0.0 | 2.0 | 0.00 | 0.36 | 0.28 | 87 | 1016.7 | |
| 20260901210016 | 77 | 0.0 | 3.0 | 0.00 | 0.36 | 0.28 | 86 | 1016.7 | |
| 20260901203056 | 76 | 0.0 | 2.0 | 0.00 | 0.36 | 0.28 | 87 | 1016.9 | |
| 20260901200038 | 76 | 0.0 | 3.0 | 0.00 | 0.36 | 0.28 | 89 | 1016.9 | |
| 20260901193016 | 74 | 0.0 | 2.0 | 0.00 | 0.36 | 0.28 | 92 | 1017.1 | |
| 20260901190016 | 73 | 0.0 | 3.0 | 0.00 | 0.36 | 0.28 | 92 | 1016.9 | |
| 20260901183036 | 73 | 0.0 | 2.0 | 0.00 | 0.36 | 0.28 | 92 | 1016.6 | |
| 20260901180016 | 73 | 0.0 | 2.0 | 0.00 | 0.38 | 0.28 | 92 | 1016.5 | |
| 20260901173016 | 73 | 0.0 | 3.0 | 0.00 | 0.42 | 0.28 | 92 | 1016.6 | |
| 20260901170016 | 73 | 0.0 | 2.0 | 0.00 | 0.42 | 0.28 | 91 | 1016.4 | |
| 20260901163016 | 73 | 0.0 | 1.0 | 0.00 | 0.42 | 0.28 | 93 | 1016.7 | |
| 20260901160016 | 72 | 0.0 | 0.0 | 0.00 | 0.42 | 0.28 | 93 | 1016.7 | |
| 20260901153016 | 71 | 0.0 | 1.0 | 0.00 | 0.42 | 0.28 | 94 | 1017.1 | |
| 20260901150016 | 71 | 0.0 | 3.0 | 0.00 | 0.42 | 0.28 | 94 | 1017.1 | |
| 20260901143036 | 71 | 0.0 | 4.0 | 0.00 | 0.42 | 0.28 | 97 | 1016.7 | |
| 20260901140037 | 70 | 0.0 | 0.0 | 0.00 | 0.42 | 0.28 | 97 | 1016.9 | |
| 20260901133016 | 69 | 0.0 | 0.0 | 0.00 | 0.42 | 0.28 | 97 | 1016.9 | |
| 20260901130017 | 69 | 0.0 | 0.0 | 0.00 | 0.42 | 0.28 | 97 | 1017.3 | |
| 20260901123058 | 68 | 0.0 | 0.0 | 0.01 | 0.42 | 0.28 | 97 | 1017.4 | |
| 20260901120016 | 67 | 0.0 | 0.0 | 0.21 | 0.42 | 0.28 | 97 | 1017.1 | |
| 20260901113016 | 67 | 0.0 | 0.0 | 0.21 | 0.41 | 0.27 | 97 | 1017.6 | |
| 20260901110016 | 67 | 0.0 | 0.0 | 0.01 | 0.21 | 0.07 | 97 | 1017.2 | |
| 20260901103016 | 67 | 0.0 | 0.0 | 0.00 | 0.20 | 0.06 | 97 | 1017.4 | |
| 20260901100016 | 67 | 0.0 | 0.0 | 0.04 | 0.20 | 0.06 | 97 | 1017.3 | |
| 20260901093015 | 67 | 0.0 | 0.0 | 0.05 | 0.20 | 0.06 | 97 | 1017.3 |